Timeline UpdatesTrip UpdatesNews PostsPvt PostsTravel TipsAdmin PostsConv PostsFollowed PostsChat RequestsBlog PostsPNR Posts

Disclaimer
Search
 
 
Thu Oct 2, 2014 07:55:46 ISTHomeTrainsΣChainsAtlasPNRForumGalleryNewsFAQTripsMembersLoginFeedback
No Recent News for this Train
Other Trains in the News **new
Latest...
.
Mon Jul 14, 2014 (10:12PM)
⇐ Return Journey: Train# 12820

12819/Orissa Sampark Kranti Express

Time-Table HAS CHANGED.
Sep 28 (10:48AM)
Change Departure Station:
Change Arrival Station:
Post a Train Travel TipPost a Train Travel Tip **new
Post a Comment/Question/Picture/VideoPost a Comment/Question/Picture/Video
Pantry/Catering
✓ Pantry Car Avbl
✓ Catering Avbl
RSA - Rake Sharing
Rake/Coach Composition
LOCO-SLR-GEN-GEN-A1-B1-B2-B3-PC-S1-S2-S3-S4-S5-S6-S7-S8-S9-S10-S11-GEN-GEN-SLR.
Loco
GZB WAP-4
News    PNR    Forum    Time-Table    Availability    Fare Chart    Map    Arr/Dep History    Trips    Gallery    ΣChains    X/O    Timeline    
Travel Time: 3h 2m    3 halts    Distance: 173 km    Avg Speed: 57 km/hr
Type: Sampark Kranti
Zone: ECoR/East Coast
Departs @ 15:30 (Avg 2m late)
Platform# 2
S  W   
Bhubaneswar/BBS 
Arrives @ 18:32 (Avg 25m late)
Platform# ???
S  W   
Soro/SORO 

3 halts. 32 intermediate Stations between Bhubaneswar and Soro

Hide intermediate Stations  Show Old Time-Table

#CodeStation NameX/OArrivesAvgDepartsAvgHaltPFDay#KmSpeedElevZoneAddress
1BBSBhubaneswar (4)»  -15:30+2210.06440mECoRBhubaneshwar, Odisha
1.1BNBHBani Bihar (2)  15:33-15:33-  13.5 6438mECoRBhubaneswar, Odisha
1.2MCSMancheswar  15:36-15:36-  16.8 6427mECoRMancheswar, Odisha
1.3PTABPatia P.H.  15:39-15:39-  19.8 6430mECoRBhubaneshwar, Odisha
1.4BBSNBhubaneswar New  15:40-15:40-  110.6 6432mECoRBhubaneshwar, Odisha
1.5BRAGBarangX  15:45-15:45-  115.7 6427mECoRDist - Cuttack, Odisha
1.6GBKGopalpur Balkuda  15:52-15:52-  123.5 6428mECoRGopalpur, Odisha
1.7KTJIKatha Jori  15:54-15:54-  126.2 6428mECoRCuttack, Odisha
2CTCCuttack Junction (5)  15:55 15:56+1816:00 16:01+225m1127.97428mECoRCuttack, Odisha
2.1KNPRKendrapara Road  16:04-16:04-  132.0 7429mECoRKendrapara Road, Odisha
2.2NRGNergundi  16:10-16:10-  138.5 7426mECoRCuttack District, Odisha
2.3KISKapilas Road Junction  16:13-16:13-  142.7 7424mECoRTangi, Odisha
2.4SJDRSri Jhadeshwar RoadX  16:18-16:18-  148.5 7430mECoRNational Highway 5, Odisha
2.5BYYByree  16:21-16:21-  152.5 7433mECoRBairi, Odisha
2.6BRTGBarithengarh  16:24-16:24-  157.0 7425mECoRCuttack, Odisha
2.7DNMDhanmandal (3)  16:30-16:30-  163.3 7438mECoRDhanmanda, Odisha
2.8HDSHaridaspur  16:34-16:34-  168.5 7430mECoRDhanmandal, Odisha
2.9NGMPNew Garh MadhopurXO  16:42-16:42-  178.3 7428mECoRGarh Madhopur, Odisha
2.10JENJenapur  16:46-16:46-  184.2 7423mECoRNational Highway 200, Odisha
2.11BRMIBrahamani PhX  16:48-16:48-  186.5 7422mECoRNational Highway 200, Odisha
2.12JKPRJakhapura  16:53-16:53-  192.1 7419mECoRJajpur, Odisha
3JJKRJajpur Keonjhar Road (4)XO  16:54 16:59+2216:56 17:00+222 1m--199.93836mECoRJajpur, Odisha
3.1KRIHKorai Halt  17:08-17:08-  1104.8 3830mECoRJajapur, Odisha
3.2BTVBaitarani RoadX  17:18-17:18-  1111.7 3827mECoRBaitarani, Odisha
3.3DLPTDulakhapatnaX  17:27-17:27-  1117.2 3827mECoRBandalo, Odisha
3.4MZZManjuri RoadXO  17:33-17:33-  1121.2 3828mECoRBhadrak, Odisha
3.5KEDKenduapada  17:44-17:44-  1128.1 3823mECoRBhadrak, Odisha
3.6KPLDKapali RoadX  17:51-17:51-  1132.8 3820mECoRKantia, Odisha
3.7BUDRBaudpur  17:58-17:58-  1137.1 3821mECoRBhadrak, Odisha
4BHCBhadrak (4)  18:08+718:10+162m--1143.57923mECoRBhadrak, Odisha
4.1RNTLRanitalX  18:16-18:16-  1151.3 7922mSERBhadrak, Odisha
4.2MKOMarkona  18:21-18:21-  1157.8 7918mSERMarkuna, Odisha
4.3SZZSabira  18:25-18:25-  1163.8 7914mSERNational Highway 5, Odisha
5SOROSoro•X  18:32+2518:33+261m--1172.57414mSERSoro, Odisha
5.1BNBRBahanaga Bazar  18:40-18:40-  1181.1 7419mSERBalasore Distt., Odisha
5.2PNPNPanpanaX  18:44-18:44-  1185.6 7415mSERKhantaparha, Odisha
5.3KHFKhantaparaX  18:48-18:48-  1190.6 7415mSERKhantaparha, Odisha
5.4NGRDNilgiri Road  18:51-18:51-  1195.3 7414mSERBaleswar, Odisha
6BLSBalasore (4)X  19:00+2519:05+255m31206.07919mSERBalasore, Odisha
6.1TKPLTikirapal Halt  19:09-19:09-  1210.9 798mSERBaleswar, Odisha
6.2HIPHaldipada (4)X  19:14-19:14-  1217.7 799mSERHaldipada, Odisha
6.3ROPRupsa Junction (5)  19:19-19:19-  1223.8 7913mSERRupsa, Odisha
6.4NMBRN Mayurbhanj Road (3)  19:23-19:23-  1229.2 7911mSERBaleswar, Odisha
6.5BTSBasta (3)  19:26-19:26-  1234.0 7916mSERBasta, Odisha
6.6ARDAmarda Road (4)  19:30-19:30-  1239.3 7911mSERAmarda Road, Odisha
6.7RGTRajghat Halt (2)O  19:35-19:35-  1245.8 7917mSERRajghat, Odisha
7JERJaleswar (4)X  19:41+3019:42+291m--1253.47313mSERJaleswar, Odisha
7.1LXDLakshannath Road (4)  19:47-19:47-  1259.6 7317mSERDist. Balasore, Odisha
7.2AGVAngua (3)  19:52-19:52-  1265.5 7317mSERWest Medinipore, West Bengal
7.3DNTDantan  19:56-19:56-  1270.0 7319mSERNational Highway 60, West Bengal
7.4NSINekurseni (3)  20:03-20:03-  1278.5 7324mSERNikursini, West Bengal
7.5BLDABelda (4)  20:09-20:09-  1286.5 7324mSERDistrict Paschim Medinipur, West Bengal
7.6CNTContai RoadX  20:09-20:09-  1286.6 7324mSERDist - Pashim medinipur, West Bengal
7.7VKDBakhrabad (3)X  20:14-20:14-  1292.5 7315mSERMedinipur, West Bengal
7.8NYANarayangarh (4)XO  20:19-20:19-  1299.0 7324mSERKasba Narayangarh, West Bengal
7.9BPEBenapur  20:28-20:28-  1310.1 7335mSERNational Highway 60, West Bengal
8HIJHijli (2)  20:35+2120:37+242m--1318.26348mSERdist - paschim medinipur, West Bengal
8.1NPTYNimpura Through Yardp20:42-20:42-  1323.8 6359mSERDist: West Medinipur, West Bengal
8.2KKQKalaikunda (4)  20:45-20:45-  1326.2 6362mSERKharagpur, West Bengal
8.3KSOKhemasuli  20:52-20:52-  1333.6 6360mSERKharagpur, West Bengal
8.4SUASardiha (4)  20:59-20:59-  1341.5 6373mSERSardiha Railway Station, West Bengal
8.5BNBBanstola (2)  21:06-21:06-  1348.3 6374mSERDherua, West Bengal
8.6JGMJhargram (4)  21:14-21:14-  1356.8 6382mSERJhargram, West Bengal
8.7KATBKhatkuraX  21:22-21:22-  1365.2 6379mSERState Highway 4, West Bengal
8.8GIIGidni (3)  21:29-21:29-  1372.4 6383mSERState Highway 4, West Bengal
8.9KNMKanimahuli (2)X  21:36-21:36-  1380.0 63110mSERState Highway 4, West Bengal
8.10CKUChakulia (4)  21:42-21:42-  1386.0 63126mSERChakulia, Jharkhand
8.11KKPRKokpara  21:49-21:49-  1394.2 63102mSEREast Singhbhum District, Jharkhand
8.12DVMDhalbhumgarh (4)  21:59-21:59-  1404.5 63115mSERDhalbhumgarh, Jharkhand
8.13GTSGhatsila (3)  22:11-22:11-  1416.5 63103mSEREast Singhbhum, Jharkhand
8.14GUDGaludih (4)  22:20-22:20-  1426.6 63120mSEREast Singhbhum, Jharkhand
8.15RHERakha Mines (2)  22:27-22:27-  1433.4 63118mSEREast Singhbhum, Jharkhand
8.16ASBAsanboni  22:33-22:33-  1440.3 63129mSEREast Singhbhum, Jharkhand
8.17GVDPGovindpur PH (2)  22:38-22:38-  1445.8 63159mSERJamshedpur, Jharkhand
8.18SLJRSalga Jhari  22:43-22:43-  1450.6 63179mSERJamshedpur, Jharkhand
9TATATatanagar Junction (5)  22:45+2222:55+2110m31452.763164mSER91-657-2423026, Jharkhand
10GMONetaji SC Bose Gomoh Junction (6)XT03:10-03:20-10m--2720.870239mECRGomoh, Jharkhand
10.1BLMEBholldih (2)  03:24-03:24-  2725.6 70241mECRGomoh, Jharkhand
10.2NMGNimiaghat (4)  03:29-03:29-  2731.2 70268mECRNational Highway 2, Jharkhand
10.3PNMEParasnath (5)  03:36-03:36-  2738.8 70282mECRGiridih 06532-233419, Jharkhand
10.4CEMEChegro  03:47-03:47-  2751.8 70333mECRBeko, Jharkhand
10.5CDBChaudhribandh (4)  03:50-03:50-  2756.1 70337mECRMaipatoli, Jharkhand
10.6GRBHGarea Bihar  03:53-03:53-  2758.9 70315mECRSariya - Parsiya Rd, Jharkhand
10.7CCKChichaki (4)  03:54-03:54-  2760.9 70308mECRNational Highway 2, Jharkhand
10.8HZDHazaribagh Road (4)  03:59-03:59-  2765.9 70330mECRHazaribagh, Jharkhand
10.9KSHRKeshwari  04:04-04:04-  2771.6 70313mECRMandramo, Jharkhand
10.10CBHChaube (4)  04:08-04:08-  2776.4 70325mECRParsabad, Jharkhand
10.11DSMEDasara (2)  04:12-04:12-  2781.4 70342mECRSariya - Parsiya Road, Jharkhand
10.12PSBParsabad (4)  04:18-04:18-  2787.9 70346mECRNational Highway 2, Jharkhand
10.13YDDYadudih (2)  04:22-04:22-  2793.3 70352mECRNational Highway 2, Jharkhand
10.14SMNDSarmatanr (4)  04:26-04:26-  2797.3 70351mECRKoderma, Jharkhand
10.15HREHirodih (4)  04:32-04:32-  2805.0 70374mECRJhumri Telaiya, Jharkhand
10.16LRBLarabad  04:36-04:36-  2809.6 70393mECRJhumri Telaiya, Jharkhand
10.17KQRKoderma Junction (7)  04:40-04:40-  2814.2 70399mECR06534-222410 Koderma, Jharkhand
10.18GJDGujhandi (4)  04:49-04:49-  2824.2 70386mECRNational Highway 31, Jharkhand
10.19LBZLalbag Block Hut  04:51-04:51-  2826.3 70389mECRState Highway 70, Bihar
10.20DLWDilwa (2)  04:55-04:55-  2830.9 70346mECRNational Highway 31, Bihar
10.21NGYNath Ganj  05:00-05:00-  2837.0 70284mECRMurli, Bihar
10.22BSCPBaskatwa B. H.  05:01-05:01-  2838.5 70273mECRMurli, Bihar
10.23YGMYadugram Block Hut  05:05-05:05-  2843.2 70210mECRYadugram Block Hut, Jharkhand
10.24GAPGurpa (4)  05:08-05:08-  2846.6 70192mECRLodhwe, Bihar
10.25PRPPaharpur  05:18-05:18-  2858.2 70150mECRGaya, Bihar
10.26BNSLBansinala Halt  05:23-05:23-  2864.5 70135mECRBansinala, Bihar
10.27TKNTankuppa  05:29-05:29-  2870.5 70127mECRState Highway 70, Bihar
10.28BNFBandhua  05:35-05:35-  2878.1 70124mECRState Highway 70, Bihar
10.29MPOManpur Junction (4)X  05:41-05:41-  2885.3 70113mECRGaya, Bihar
10.30SICYShaheed Ishwar Chowdhary Halt (2)X  05:43-05:43-  2887.0 70112mECRManpur, Bihar
10.31GAYAGaya Junction (9)X  05:46-05:46-  2890.6 70117mECR0631-2220283, Bihar
10.32WCBGaya West Cabin  05:49-05:49-  2893.9 70111mECRGaya, Bihar
10.33KSTAKastha  05:53-05:53-  2899.1 70113mECRGaya, Bihar
10.34PRYParaiya  05:59-05:59-  2906.2 70111mECRparaiya station Rd, Bihar
10.35GRRUGuraruX  06:04-06:04-  2912.1 70114mECRGuraru, Bihar
10.36IMGEIsmailpur  06:10-06:10-  2919.0 70114mECRState Highway 69, Bihar
10.37RFJRafiGanj (4)  06:18-06:18-  2928.2 70102mECRRafiganj, Bihar
10.38DORDDeo RoadX  06:24-06:24-  2935.3 70102mECRMaluk Bigha, Bihar
10.39JHNJakhim  06:28-06:28-  2939.0 7093mECRbel Rd, Bihar
10.40BHKHBaghoi Kusa  06:33-06:33-  2945.6 7098mECRbel Rd, Bihar
10.41PESPhesar  06:37-06:37-  2950.1 70104mECRpheshar, Bihar
10.42AUBRAnugraha Narayan Road (4)XO  06:45-06:45-  2959.1 70104mECR06186-285271, Bihar
10.43CPBHChiraila  06:49-06:49-  2964.1 70104mECRBarun, Bihar
10.44SEBSon Nagar Junction (4)O  06:54-06:54-  2969.9 70110mECRBarun, Bihar
10.45ADSRADSR  06:58-06:58-  2974.8 70113mECRDehri, Bihar
10.46DOSDehri On Sone (6)  06:59-06:59-  2975.7 70114mECRRohtas(06184-253154), Bihar
10.47PHEPahaleja HaltO  07:03-07:03-  2980.1 70112mECRPahaleja, Bihar
10.48KWDKarwandia  07:09-07:09-  2986.8 70112mECRKarwandiya, Bihar
10.49SSMSasaram Junction (4)XO  07:14-07:14-  2993.3 70111mECR06184-222051, Bihar
10.50KMGEKumahu  07:21-07:21-  21001.2 70101mECRKamahu, Bihar
10.51SSGShiu Sagar Road  07:26-07:26-  21006.9 7099mECRShiu Sagar Rd, Bihar
10.52KVDKhurmabad RoadXO  07:30-07:30-  21011.7 7093mECRKhurmabad, Bihar
10.53KTQKudra (2)X  07:36-07:36-  21018.6 7092mECRKudra, Bihar
10.54PSEPusauliO  07:44-07:44-  21027.6 7086mECRDistt: Rohtas, Bihar
10.55MTGEMuthaniX  07:50-07:50-  21035.5 7083mECRNational Highway 2, Bihar
10.56BBUBhabua Road (4)  07:55-07:55-  21040.9 7080mECR06187-222222, Bihar
10.57DGODurgauti  08:03-08:03-  21049.9 7078mECRDistt Kaimur, Bihar
10.58DCXDhanaichha  08:07-08:07-  21055.3 7075mECRNational Highway 2, Bihar
10.59KMSKaramnasaX  08:13-08:13-  21061.5 7078mECRNational Highway 2, Uttar Pradesh
10.60SYJSaidraja  08:20-08:20-  21069.7 7080mECRSaiyedraja, Uttar Pradesh
10.61CDMRChandauli Majhwar  08:27-08:27-  21078.1 7079mECRNational Highway 2, Uttar Pradesh
10.62GAQGanj Khawaja  08:34-08:34-  21086.6 7079mECRChandauli Mjhwr, Uttar Pradesh
10.63FOCMFlyover Cabin Mughal SaraiX  08:36-08:36-  21089.0 7080mECRChandauli Mjhwr, Uttar Pradesh
10.64MGSMughal Sarai Junction (8)XT08:00 08:42-08:20 08:42-  21095.5 7083mECRMughalsarai 232101, Uttar Pradesh
10.65NEWCNew West Cabin  08:43-08:43-  21096.7 7080mECRMughal Sarai, Uttar Pradesh
10.66JEPJeonathpur (2)X  08:49-08:49-  21103.3 7083mNCRVaranasi, Uttar Pradesh
10.67ARWAhraura Road (4)  08:54-08:54-  21109.2 7085mNCRDist. Mirzapur - 231305, Uttar Pradesh
10.68KYTKailahat (4)X  09:01-09:01-  21117.7 7083mNCRKailahat, Uttar Pradesh
10.69CARChunar Junction (5)  09:09-09:09-  21127.4 7085mNCRChunar Junction, Uttar Pradesh
10.70DAPDagmagpur  09:16-09:16-  21134.8 7088mNCRDagmagpur, Uttar Pradesh
10.71PREPaharaX  09:23-09:23-  21142.8 7087mNCRNational Highway 7, Uttar Pradesh
10.72JHGJhingura  09:29-09:29-  21150.3 7085mNCRNational Highway 7, Uttar Pradesh
10.73MZPMirzapur (3)  09:36-09:36-  21158.6 7088mNCRMirzapur, Uttar Pradesh
10.74BDLVindhyachal (3)  09:42-09:42-  21166.0 7088mNCRMirzapur, Uttar Pradesh
10.75BEOBiroheX  09:47-09:47-  21170.7 7083mNCRNational Highway 76, Uttar Pradesh
10.76GAEGaipura (4)X  09:53-09:53-  21178.3 7086mNCRGaipura, Uttar Pradesh
10.77JIAJigna (1)  09:59-09:59-  21185.2 7094mNCRNational Highway 76, Uttar Pradesh
10.78MNFManda Road  10:06-10:06-  21193.5 7093mNCRNH 76, Uttar Pradesh
10.79UNDUnchdih  10:13-10:13-  21201.6 7094mNCRUnchdih, Uttar Pradesh
10.80MJAMeja Road (4)  10:20-10:20-  21209.7 7094mNCRDistrict Allahabad, Uttar Pradesh
10.81BEPBheerpurX  10:30-10:30-  21221.0 7094mNCRNH 76, Uttar Pradesh
10.82KCNKarchanaX  10:38-10:38-  21230.1 7094mNCRKarchana, Uttar Pradesh
10.83COIChheoki Junction (3)X  10:45-10:45-  21239.1 7096mNCRDist.-Allahabad, Uttar Pradesh
10.84NYNNaini Junction (4)  10:47-10:47-  21240.7 7098mNCRAllahabad, Uttar Pradesh
10.85ALDAllahabad Junction (10)p10:53-10:53-  21248.2 70100mNCRAllahabad 211003, Uttar Pradesh
10.86SFGSubedarGanj (3)  10:56-10:56-  21251.9 70100mNCRAllahabad, Uttar Pradesh
10.87BMUBamhrauli  11:01-11:01-  21257.0 70102mNCRAllahabad, Uttar Pradesh
10.88MREManauri  11:08-11:08-  21265.4 70105mNCRSabderganj-Fatehpur Rd, Uttar Pradesh
10.89SYWNSaiyid Sarawan  11:12-11:12-  21270.0 70106mNCR212203 ?, Uttar Pradesh
10.90MNJManoharGanjO  11:18-11:18-  21277.4 70104mNCRNational Highway 2, Uttar Pradesh
10.91BREBharwari  11:25-11:25-  21285.2 70108mNCRBharwari, Uttar Pradesh
10.92BDNPBidanpurX  11:28-11:28-  21289.3 70106mNCRBidanpur, Uttar Pradesh
10.93SJTShujaatpur  11:34-11:34-  21295.5 70107mNCRNational Highway 2, Uttar Pradesh
10.94SROSirathu (2)X  11:42-11:42-  21305.4 70109mNCRSirathu, Uttar Pradesh
10.95ASCEAthsaraiX  11:48-11:48-  21311.8 70107mNCRAthsarai, Uttar Pradesh
10.96KUWKanwar  11:52-11:52-  21317.2 70110mNCRNational Highway 2, Uttar Pradesh
10.97KTCEKatoghan  11:58-11:58-  21323.3 70109mNCRNational Highway 2, Uttar Pradesh
10.98KGAKhaga (3)X  12:04-12:04-  21330.2 70114mNCRFatehpur, Uttar Pradesh
10.99SNIESath Naraini  12:10-12:10-  21337.7 70114mNCRNational Highway 2, Uttar Pradesh
10.100RUBRasulabad  12:16-12:16-  21344.8 70118mNCRRasulabad, Uttar Pradesh
10.101FYZFaizullapurX  12:24-12:24-  21353.9 70115mNCRFaizullapur, Uttar Pradesh
10.102RAMARamva  12:28-12:28-  21359.0 70116mNCRforcing detours between Kanpur and Varanasi, Uttar Pradesh
10.103FTPFatehpur (3)  12:33-12:33-  21364.9 70120mNCRFatehpur, Uttar Pradesh
10.104KKSKurasti KalanXO  12:39-12:39-  21371.9 70119mNCRJoniha Rd, Uttar Pradesh
10.105MWHMalwan (2)X  12:47-12:47-  21381.0 70122mNCRFatehpur, Uttar Pradesh
10.106KSQKanspur GugauliX  12:53-12:53-  21388.2 70124mNCRNational Highway 2, Uttar Pradesh
10.107BKOBindki Road  13:00-13:00-  21396.2 70124mNCRFatehpur, Uttar Pradesh
10.108AUNGAung  13:05-13:05-  21402.1 70123mNCRNational Highway 2, Uttar Pradesh
10.109KBNKarbigwan  13:11-13:11-  21408.5 70121mNCRFatehpur, Uttar Pradesh
10.110PMPRPrempur  13:15-13:15-  21413.8 70125mNCRNational Highway 2, Uttar Pradesh
10.111SSLSirsaul (1)O  13:21-13:21-  21419.9 70125mNCRKANPUR-209 402, Uttar Pradesh
10.112RXMRooma (2)  13:26-13:26-  21426.5 70125mNCRKANPUR-208 008, Uttar Pradesh
10.113CHKChakeri (2)  13:30-13:30-  21431.1 70126mNCRKANPUR-208 008, Uttar Pradesh
10.114CNBIChandari (2)  13:36-13:36-  21438.0 70125mNCRKanpur Cantt, Uttar Pradesh
11CNBKanpur Central (10)  13:40+2:3713:55+2:3515m--21442.563128mNCRKANPUR-208 001, Uttar Pradesh
11.1GMCKanpur Goods Marshalling Yard  13:56-13:56-  21443.7 63128mNCRKanpur-208 014, Uttar Pradesh
11.2CNJOJuhi Outer Cabin  13:58-13:58-  21445.4 63131mNCRKanpur, Uttar Pradesh
11.3CPNLKanpur C Panel  13:58-13:58-  21445.9 63127mNCRKanpur, Uttar Pradesh
11.4GOYGovindpuri Junction (2)  13:59-13:59-  21446.4 63129mNCRKANPUR-208 006, Uttar Pradesh
11.5PNKPanki (3)  14:06-14:06-  21454.0 63129mNCRKANPUR-208 020, Uttar Pradesh
11.6BPUBhaupur  14:17-14:17-  21465.2 63133mNCRKANPUR Dehat-209 307, Uttar Pradesh
11.7MTOMaitha  14:26-14:26-  21475.1 63235mNCRMDR 78C, Uttar Pradesh
11.8RMWRoshan Mau  14:30-14:30-  21479.2 63135mNCRRoshan Mau, Uttar Pradesh
11.9RURARura (4)  14:37-14:37-  21486.8 63137mNCRJhinjhak, Uttar Pradesh
11.10AAPAmbiapur  14:46-14:46-  21495.6 63140mNCRJhinjhak, Uttar Pradesh
11.11JJKJhinjhak (3)  14:55-14:55-  21505.9 63140mNCRAuraiya, Uttar Pradesh
11.12PJYPara Jani Halt (1)  15:01-15:01-  21511.7 63139mNCRPara Jani, Uttar Pradesh
11.13KNSKanchausi (2)  15:06-15:06-  21516.8 63143mNCRState Highway 21, Uttar Pradesh
11.14PHDPhaphund (4)X  15:14-15:14-  21525.7 63146mNCRdist. Auraiya, Uttar Pradesh
11.15PATAPata (3)  15:22-15:22-  21534.1 63143mNCRPhaphund, Uttar Pradesh
11.16ULDAchalda (3)  15:30-15:30-  21542.5 63147mNCRDist. Auraiya(05688-1072), Uttar Pradesh
11.17GHSRGhasara Halt (1)  15:35-15:35-  21547.9 63146mNCRPhaphund, Uttar Pradesh
11.18SHWSamhon (2)  15:39-15:39-  21551.6 63144mNCRSamahon, Uttar Pradesh
11.19BNTBharthana (3)  15:49-15:49-  21562.0 63147mNCRBharthana, Uttar Pradesh
11.20EKLEkdil (2)X  15:59-15:59-  21572.2 63150mNCRSarai Ikdil, Uttar Pradesh
11.21ETWEtawah (5)X  16:08-16:08-  21581.9 63154mNCRDistt. Etawah, Uttar Pradesh
11.22SBSarai Bhopat (2)  16:16-16:16-  21590.2 63151mNCREtawah(05688-1072), Uttar Pradesh
11.23JGRJaswantnagar (2)X  16:23-16:23-  21597.8 63154mNCRJaswantnagar, Uttar Pradesh
11.24BBLBalrai (3)  16:31-16:31-  21606.5 63157mNCRBalrai, Uttar Pradesh
11.25BDNBhadan (2)X  16:42-16:42-  21617.3 63160mNCRFirozabad, Uttar Pradesh
11.26KAAKaurara (3)  16:50-16:50-  21626.4 63160mNCRFirozabad Distt, Uttar Pradesh
11.27SKBShikohabad Junction (4)X  17:01-17:01-  21637.3 63166mNCRDistrict Firozabad, Uttar Pradesh
11.28MNRMakkhanpur (2)  17:10-17:10-  21647.2 63166mNCRNational Highway 2, Uttar Pradesh
11.29FZDFirozabad (4)  17:20-17:20-  21657.1 63164mNCRFirozabad, Uttar Pradesh
11.30HNGHirangaon (2)  17:27-17:27-  21664.9 63166mNCRNational Highway 2, Uttar Pradesh
11.31TDLTundla Junction (5)  17:35-17:35-  21673.7 63167mNCRDistt.Firozabad, Uttar Pradesh
11.32WSCShivarampurX  17:39-17:39-  21677.2 63168mNCRShivarampur, Uttar Pradesh
11.33MTIMitawali (1)X  17:42-17:42-  21680.5 63169mNCRMitawali, Uttar Pradesh
11.34BRNBarhan Junction  17:49-17:49-  21688.4 63173mNCRJN Point-Tundle/Aligarh/Etah, Uttar Pradesh
11.35CMRChamrola (1)  17:56-17:56-  21695.2 63174mNCRMDR 106W, Uttar Pradesh
11.36JLSJalesar Road (1)  18:02-18:02-  21701.6 63172mNCRMDR 106W, Uttar Pradesh
11.37PORAPora (2)  18:11-18:11-  21711.3 63179mNCRHathras, Uttar Pradesh
11.38HRSHathras Junction (3)  18:21-18:21-  21721.7 63183mNCRMahamaya Nagar(05722-242803), Uttar Pradesh
11.39SNSSasni (3)  18:30-18:30-  21730.6 63185mNCRSasni, Uttar Pradesh
11.40MXKMandrak (2)  18:37-18:37-  21738.0 63190mNCRNational Highway 93, Uttar Pradesh
11.41DAQDaud Khan (3)  18:43-18:43-  21744.8 63189mNCRNational Highway 91, Uttar Pradesh
11.42ALJNAligarh Junction (4)  18:50-18:50-  21751.8 63192mNCRAligarh, Uttar Pradesh
11.43MWUEMahrawal (2)  18:56-18:56-  21758.2 63189mNCRNational Highway 91, Uttar Pradesh
11.44KLAKulwa (2)  19:01-19:01-  21763.8 63190mNCRAligarh, Uttar Pradesh
11.45SOMSomna (2)O  19:11-19:11-  21773.9 63195mNCRNational Highway 91, Uttar Pradesh
11.46DARDanwar (2)X  19:21-19:21-  21784.2 63198mNCRDanwar, Uttar Pradesh
11.47KAMPKamalpur (2)O  19:26-19:26-  21789.8 63195mNCRKamalpur, Uttar Pradesh
11.48KRJKhurja Junction (4)X  19:31-19:31-  21795.3 63199mNCRBulandshahr, Uttar Pradesh
11.49SKQSikandarpur (2)  19:37-19:37-  21801.0 63199mNCRMDR 70W, Uttar Pradesh
11.50GNRLGangraul (3)  19:41-19:41-  21805.8 63200mNCRMDR 70W, Uttar Pradesh
11.51CHLChola (3)X  19:45-19:45-  21809.9 63204mNCRTahsil Bulandshahar, Uttar Pradesh
11.52WIRWairX  19:50-19:50-  21814.7 63203mNCRBhati Harish Singh, Uttar Pradesh
11.53WAIRWair (2)X  19:50-19:50-  21814.8 63203mNCRBulandshahr District, Uttar Pradesh
11.54DKDEDankaur (3)  19:58-19:58-  21823.8 63209mNCRShyam Nagar Mandi, Uttar Pradesh
11.55AJRAjaibpur (2)X  20:06-20:06-  21832.1 63207mNCRGreater Noida, Uttar Pradesh
11.56BRKYBoraki (2)X  20:11-20:11-  21837.0 63208mNCRNational Highway 91, Uttar Pradesh
11.57DERDadri (3)  20:15-20:15-  21841.2 63210mNCR203207, Uttar Pradesh
11.58MIUMaripat (2)O  20:21-20:21-  21848.0 63213mNCRNational Highway 91, Uttar Pradesh
11.59CYZChipyana Buzurg (1)X  20:28-20:28-  21854.4 63209mNRGhaziabad, Uttar Pradesh
11.60GZBGhaziabad Junction (6)X  20:31-20:31-  21858.0 63217mNRGhaziabad, Uttar Pradesh
11.61SBBSahibabad Junction (5)  20:38-20:38-  21865.2 63209mNRGhaziabad, Uttar Pradesh
11.62DSBPDelhi Shahdara B PanelX  20:40-20:40-  21867.6 63206mNRGhaziabad, Uttar Pradesh
11.63CNJChander Nagar (2)X  20:41-20:41-  21868.9 63206mNRSahibabad Industrial Area Site 4, Uttar Pradesh
11.64ANVTDelhi Anand Vihar Terminal (3)X  20:43-20:43-  21871.0 63208mNRGhazipur Road, Delhi NCT
11.65ANVRAnand Vihar (2)X  20:43-20:43-  21871.1 63213mNRAnand Vihar, Delhi NCT
11.66MWCMandawali-Chander Vihar (2)X  20:47-20:47-  21874.5 63206mNRDelhi-110092, Delhi NCT
11.67TKJTilak Bridge (4)X  20:53-20:53-  21880.8 63214mNRNew Delhi, Delhi NCT
11.68CSBShivaji Bridge (4)X  20:54-20:54-  21882.2 63213mNRConnaught Place, Delhi NCT
12NDLSNew Delhi (16)  20:50 20:55+2:27-1421883.3-215mNRNew Delhi, Delhi NCT
Scroll to Top
Scroll to Bottom